GFSGBSN_850_rhum_210.txt.gz
RH
36 36 35 32 33 31 30 31 34 40 47 50 53 55 58 63 64 68 70 67 68 73 70 61 56 47 52 58 53 38 34 34 34 35 36 39 46 38 36 35 32 30 33 29 26 25 28
36 36 33 29 27 26 25 27 29 32 37 43 50 52 54 56 59 61 58 57 50 51 50 47 44 46 54 57 44 33 32 32 32 33 33 40 42 33 31 36 31 31 28 25 23 24 23
34 33 31 26 23 23 23 24 27 30 33 38 41 45 46 46 45 46 45 47 41 39 39 40 43 49 51 45 39 35 35 34 34 35 36 40 41 34 31 36 26 25 27 25 24 23 23
30 32 30 25 22 21 21 22 24 27 31 34 37 38 37 36 35 36 37 38 37 35 36 40 47 50 60 40 39 36 32 33 34 39 42 40 40 34 32 26 26 29 29 29 26 24 23
26 28 28 26 20 18 17 17 18 21 24 28 30 32 31 31 33 33 31 33 35 33 37 42 44 63 52 47 36 40 38 30 32 35 35 35 33 31 29 40 46 33 34 29 27 28 25
25 24 25 24 19 16 15 14 14 15 18 21 23 25 27 31 27 28 35 30 32 32 34 36 50 52 54 48 36 44 44 32 27 29 32 31 32 46 56 61 57 38 27 27 27 30 25
21 22 21 21 20 18 16 13 13 14 15 18 19 20 24 27 27 26 29 34 38 39 43 40 41 52 57 48 40 48 51 32 27 26 38 40 44 56 41 42 34 31 25 25 31 34 28
22 21 18 16 15 14 14 13 12 13 13 14 15 19 22 22 23 22 26 29 32 40 34 39 39 41 54 35 42 44 48 41 33 43 38 48 42 41 42 35 28 25 25 26 32 36 28
37 36 34 30 24 18 13 12 12 12 14 13 15 18 18 18 24 23 25 25 36 32 31 27 29 28 47 34 44 53 54 54 47 44 48 45 42 39 35 47 40 46 28 34 33 30 34
30 29 28 27 29 34 36 28 14 11 12 14 13 14 14 14 23 32 32 33 28 30 70 38 29 27 26 33 41 50 60 59 49 42 48 50 45 39 39 43 49 33 48 39 30 36 32
20 20 19 18 17 17 17 21 32 32 21 13 12 12 12 13 15 22 24 23 21 32 67 30 26 27 27 34 31 37 66 49 57 49 45 52 50 45 47 52 53 47 46 47 46 62 45
17 17 16 15 14 13 14 13 13 17 28 31 21 14 11 11 12 13 14 17 24 68 50 37 29 31 29 27 28 32 37 42 43 50 53 55 51 57 50 55 55 56 44 61 66 65 55
14 13 13 13 12 12 14 16 15 14 15 25 27 12 16 15 14 16 13 22 69 80 28 42 36 31 29 32 27 32 29 34 69 54 42 47 58 56 54 46 45 38 55 62 60 66 52
12 12 13 14 17 17 18 18 18 18 17 22 22 26 28 23 18 18 17 49 46 28 31 29 33 31 29 28 34 36 30 38 34 57 54 56 52 58 63 56 44 54 60 68 39 46 59
20 19 18 19 19 20 19 18 16 19 20 25 22 29 33 21 18 20 36 69 40 30 33 31 30 33 29 28 36 33 39 44 34 38 31 43 41 59 64 58 52 44 51 43 71 90 64
25 25 24 22 20 20 20 18 16 17 27 27 30 26 34 29 25 28 45 46 35 39 38 32 27 29 40 32 33 27 32 34 31 34 37 42 49 59 64 53 53 43 48 47 74 18 30
44 34 32 27 28 27 25 23 19 16 20 35 30 37 45 38 38 37 57 38 41 37 43 36 26 24 28 24 27 28 28 32 33 32 26 29 34 46 58 63 56 61 68 65 60 65 54
78 55 37 30 30 32 31 26 22 17 17 29 42 32 50 41 36 51 43 38 35 35 40 37 31 25 24 24 23 29 25 25 33 26 19 29 30 55 37 49 47 47 44 46 63 44 85
88 76 61 44 35 33 32 30 26 22 18 24 32 40 44 42 43 39 41 34 40 39 40 34 33 30 28 26 26 29 35 38 34 29 30 33 28 53 43 57 56 62 53 48 61 71 84
90 80 73 62 51 42 38 35 31 27 23 18 28 42 32 34 33 35 35 33 33 39 36 34 32 32 28 28 29 36 41 44 39 36 44 31 37 28 31 24 57 56 61 56 43 76 66
89 85 79 69 60 53 48 41 38 32 27 22 25 40 39 41 35 40 38 36 36 37 38 36 38 31 30 32 33 32 41 50 48 51 45 41 33 45 42 44 56 49 47 65 61 48 52
88 80 76 72 66 60 55 49 43 38 34 25 31 34 38 45 47 40 43 45 36 35 37 35 33 38 37 30 28 35 44 50 44 59 43 60 43 47 54 49 53 59 57 53 58 50 48
94 85 78 66 62 60 54 47 42 39 40 39 39 41 50 38 54 41 38 35 39 36 36 32 34 42 44 40 30 29 30 35 40 59 58 62 55 62 65 61 59 68 60 51 54 57 51
99 98 97 88 74 67 63 57 51 45 45 53 55 52 49 44 59 49 40 41 40 41 31 40 39 40 36 40 41 43 47 49 51 55 45 70 57 63 82 56 75 37 39 46 52 54 55
99 99 100 99 92 78 80 79 70 62 58 60 65 62 58 60 50 48 49 48 42 42 46 43 41 40 40 41 53 52 54 48 62 67 68 56 62 66 83 89 63 45 47 58 56 63 62
99 99 99 93 82 74 64 60 68 80 84 83 80 76 72 68 65 46 47 50 56 58 56 50 51 50 47 64 61 66 62 50 50 76 79 68 60 62 89 89 84 51 46 46 48 71 73
96 98 97 71 60 50 44 43 42 44 52 66 94 98 92 84 66 65 68 62 55 61 66 66 62 60 53 79 79 85 77 51 61 72 90 91 88 80 73 82 74 54 56 49 65 70 87
90 90 94 70 54 48 44 33 29 26 26 33 71 100 100 97 82 76 78 77 72 74 78 66 68 73 80 82 84 86 91 75 67 64 82 82 90 96 82 91 87 92 65 57 85 93 95
93 98 90 78 49 37 35 33 28 26 22 18 25 55 72 87 98 97 92 92 90 87 83 76 70 72 68 78 83 84 90 91 80 80 66 68 62 73 70 73 97 98 98 98 99 98 100

GFSGBSN_850_rhum_213.txt.gz
RH
30 36 37 42 32 27 25 26 28 30 35 42 45 49 53 58 62 65 65 63 68 82 82 68 61 49 48 56 51 48 38 35 48 51 44 42 51 42 39 40 35 34 33 33 27 27 30
29 31 34 38 30 24 24 24 26 29 32 37 42 44 46 49 50 52 52 51 54 55 54 50 48 44 52 61 47 42 35 32 33 35 37 40 46 36 33 36 39 32 30 26 25 25 24
28 27 30 31 30 23 22 22 24 26 30 33 36 37 37 38 38 39 40 42 44 47 42 41 42 50 62 56 44 39 37 36 33 32 34 35 46 36 34 41 28 27 30 25 26 24 24
27 25 25 26 26 23 21 20 21 22 25 28 30 30 32 32 33 34 33 34 38 39 38 43 48 55 54 54 49 39 37 34 35 36 37 34 45 40 33 30 27 30 30 33 26 25 23
23 24 23 23 22 20 18 17 16 17 19 21 24 26 27 31 32 29 32 32 35 35 38 55 62 69 57 56 41 40 39 34 35 40 42 40 43 34 30 41 41 34 36 31 25 29 25
22 22 22 21 19 18 17 16 14 14 17 19 21 22 25 29 28 27 32 30 32 35 38 42 57 65 58 56 48 60 45 37 36 39 39 38 34 49 48 63 57 40 27 29 26 30 27
26 20 18 16 15 14 14 14 13 13 14 16 16 17 21 24 27 28 29 37 40 40 42 40 40 49 61 54 43 61 38 34 35 34 46 40 46 58 44 41 32 34 26 26 32 35 29
30 31 26 24 19 12 10 10 11 12 12 15 16 19 21 21 22 24 25 32 30 40 40 42 42 42 47 40 47 52 57 36 31 46 39 47 43 42 40 36 28 26 25 26 33 36 28
36 33 31 30 32 31 28 19 12 11 12 13 14 17 19 16 21 25 26 27 30 36 33 29 31 28 35 37 43 50 59 49 41 43 46 49 43 40 38 48 38 44 28 32 30 28 33
25 22 20 19 19 19 19 21 27 27 16 13 12 13 14 14 25 32 31 32 35 33 70 42 30 28 26 39 44 69 71 51 47 45 48 51 45 37 40 48 48 35 49 35 26 36 37
18 18 17 15 14 13 14 14 14 14 27 29 17 14 12 13 14 23 26 28 22 33 60 29 27 29 29 62 50 49 76 42 58 52 44 53 51 43 45 53 51 46 46 44 43 47 41
16 16 14 14 13 14 15 18 18 16 14 22 30 22 13 15 15 15 18 22 23 64 54 38 30 31 28 28 34 70 50 40 47 45 52 58 53 58 50 57 54 62 40 54 61 57 58
17 15 16 19 21 22 22 19 18 19 18 17 27 15 18 20 19 18 15 23 65 63 29 41 37 33 30 31 37 63 42 49 73 52 50 49 60 56 55 48 44 36 55 67 67 68 54
35 29 26 24 23 24 26 23 17 23 19 20 24 26 28 25 23 20 26 45 62 32 30 30 35 32 30 28 35 35 37 47 42 54 72 63 58 59 61 56 43 53 56 74 58 61 54
64 57 45 38 30 31 29 30 19 21 27 28 26 31 31 21 19 22 38 74 46 30 29 33 31 35 29 28 38 34 36 46 36 51 42 41 55 61 64 59 52 46 51 44 73 85 56
83 63 59 55 44 40 38 32 30 20 29 32 31 28 35 30 20 25 46 50 31 37 36 34 24 30 39 32 32 29 36 34 34 35 38 37 54 61 66 54 52 42 48 48 71 28 35
95 67 60 50 46 43 42 38 33 28 26 42 36 35 41 36 30 36 56 38 38 36 42 36 27 27 28 25 26 28 26 30 32 31 28 33 34 47 59 60 57 58 65 62 57 59 52
96 78 67 58 43 46 44 41 38 33 26 42 56 43 52 42 32 53 45 38 34 36 43 38 31 25 26 27 25 34 26 24 32 27 20 27 34 64 38 55 48 47 42 41 61 45 75
94 82 72 62 54 47 45 44 40 38 34 28 43 42 53 46 46 39 40 36 40 42 42 37 34 30 28 27 25 28 33 40 35 29 28 34 26 48 37 47 56 58 50 48 57 66 78
87 84 79 71 61 55 48 45 43 40 38 30 38 52 41 42 33 34 38 32 32 40 38 36 33 32 29 29 30 37 41 43 40 35 45 26 32 26 32 26 58 56 63 52 43 71 63
89 90 83 72 64 58 53 48 40 38 36 35 34 41 45 46 37 39 35 38 37 41 39 37 36 35 32 34 33 32 43 54 49 53 45 41 35 39 37 32 51 46 46 63 58 40 51
93 88 91 70 64 56 52 48 43 36 36 40 40 48 39 44 48 42 47 43 38 34 43 42 35 34 35 30 28 34 43 49 46 60 49 57 43 45 46 44 55 53 52 59 52 43 48
99 100 95 81 71 64 61 52 47 43 37 47 53 54 62 42 56 44 41 34 39 34 37 32 39 46 40 38 28 27 30 34 39 54 54 53 59 62 64 57 59 66 53 45 54 60 51
100 100 98 98 84 75 69 68 66 63 61 62 68 67 60 54 60 51 40 39 41 42 32 40 36 37 36 40 40 42 44 47 48 50 46 65 55 61 74 58 71 38 42 46 50 52 55
100 100 98 97 89 81 73 64 59 63 77 80 90 83 72 73 53 48 49 48 44 43 45 42 40 39 39 40 50 49 53 45 69 72 65 53 58 62 79 84 60 42 52 57 54 56 62
98 99 99 98 81 70 74 58 39 39 42 61 88 100 94 82 74 52 52 49 55 57 52 50 50 48 47 62 56 61 60 46 49 79 77 64 60 62 88 87 80 48 49 48 48 62 76
99 96 93 93 87 63 56 59 75 54 33 27 80 100 100 100 74 73 71 64 58 61 64 66 62 60 53 75 72 79 72 48 56 69 87 89 82 75 72 85 75 54 63 53 64 65 90
89 89 88 91 90 69 76 67 49 58 52 59 46 96 83 100 89 82 83 83 79 78 78 68 69 74 80 80 78 80 87 68 66 63 82 78 88 94 78 88 84 94 69 59 84 96 92
98 91 89 91 92 88 77 81 85 51 53 58 38 37 35 38 80 92 96 96 96 92 89 76 72 74 68 75 84 78 85 91 78 82 67 66 58 72 68 73 96 100 98 99 92 99 100

GFSGBSN_850_rhum_219.txt.gz
RH
26 27 28 26 26 25 24 25 26 30 32 36 40 44 46 47 45 45 45 46 51 70 83 83 68 60 52 56 48 45 45 42 64 67 71 55 45 39 32 26 28 29 24 20 22 29 25
26 25 26 26 25 23 22 23 24 26 30 33 36 38 39 39 38 38 39 40 42 48 74 75 58 51 64 49 47 44 42 40 37 68 63 53 45 39 31 24 27 27 23 21 22 22 23
25 25 24 24 24 24 21 20 20 20 23 27 31 34 34 34 34 34 35 34 36 39 42 43 43 45 63 51 50 47 49 43 40 43 52 50 45 42 33 26 25 24 27 22 20 20 19
22 22 23 23 23 22 19 17 16 15 16 19 23 26 28 29 32 32 32 32 34 35 38 41 43 72 62 53 55 54 49 43 38 38 50 46 47 47 37 30 28 24 24 32 19 19 20
25 22 22 21 20 19 18 17 15 14 14 15 19 22 24 26 31 29 31 34 34 35 47 53 64 75 57 54 56 53 49 44 42 45 53 45 50 45 36 36 31 26 35 33 26 18 18
34 25 21 18 16 15 14 14 14 12 12 13 14 17 19 22 29 30 29 32 35 38 45 56 67 62 56 54 62 49 55 51 40 45 45 48 44 41 38 41 60 35 28 28 29 21 21
60 28 25 27 26 26 25 22 17 12 12 12 13 15 18 21 24 27 29 36 51 50 51 42 39 44 49 52 44 64 47 50 40 42 43 44 45 50 36 29 28 24 26 24 22 20 19
47 37 30 26 24 22 21 21 24 26 18 12 12 15 19 21 21 24 29 44 38 41 35 42 43 45 45 42 47 62 59 45 38 44 38 45 50 32 27 27 30 29 26 25 21 22 22
28 24 22 20 18 17 16 15 15 15 20 26 13 14 16 18 19 19 28 40 31 29 40 36 42 40 47 51 59 56 66 50 36 41 43 53 37 31 32 32 32 25 27 24 24 24 20
22 20 18 17 16 19 23 23 21 20 18 15 28 15 14 15 18 30 40 27 29 37 43 33 32 33 36 57 60 62 79 64 36 45 38 56 33 32 32 32 28 34 27 21 25 26 32
20 21 21 20 22 26 27 28 25 19 21 19 17 31 18 15 25 33 34 33 31 36 74 31 30 36 42 60 77 60 63 60 42 34 36 50 35 35 35 34 35 36 27 24 27 28 32
44 44 40 39 31 34 37 36 32 21 29 25 16 33 29 20 18 17 21 30 32 52 69 43 27 30 44 53 70 54 58 52 37 37 36 42 44 37 38 40 37 32 28 31 34 35 87
88 75 52 41 39 41 41 40 36 26 30 19 18 32 25 18 36 18 21 32 66 60 23 36 30 28 29 30 37 50 47 44 44 55 46 38 44 42 40 39 36 33 60 100 94 96 40
99 82 72 51 43 42 43 41 37 33 29 26 27 26 31 34 29 19 20 26 52 22 22 25 28 30 31 25 28 37 39 51 41 44 38 55 64 46 44 44 46 42 74 96 91 55 42
98 80 65 56 47 44 42 41 38 34 29 37 33 30 39 32 27 20 36 66 30 21 21 26 31 42 27 25 31 37 33 42 39 38 45 37 65 48 45 43 45 47 67 36 80 49 47
85 82 68 58 54 49 45 41 38 35 32 43 40 39 57 36 24 25 29 45 24 25 27 27 33 27 42 28 41 37 38 29 30 28 28 30 63 46 48 44 38 41 30 57 73 89 78
83 80 73 65 62 57 52 47 40 35 32 40 51 51 52 35 26 37 51 35 23 29 30 28 24 21 21 27 25 30 31 33 25 28 25 26 33 53 44 46 44 38 45 39 43 38 70
88 85 78 73 64 60 54 48 46 40 34 32 56 54 56 33 39 31 38 25 29 31 41 35 31 22 20 19 23 30 29 30 26 24 26 23 20 46 33 36 36 37 34 24 55 54 44
89 87 85 80 73 68 57 50 44 42 40 35 56 48 59 39 51 42 26 28 33 34 33 32 28 25 20 19 24 21 22 28 28 22 19 18 20 30 32 37 37 36 31 25 25 36 76
92 91 86 81 74 71 71 62 54 47 42 36 54 52 62 60 50 34 25 24 30 36 31 29 26 26 25 24 19 23 25 37 35 23 35 24 16 17 24 29 30 32 33 27 22 57 34
100 100 100 98 93 80 70 63 55 50 46 40 53 40 51 48 37 36 29 29 28 35 37 33 31 26 24 25 25 26 26 41 39 42 35 24 21 18 17 19 26 25 34 31 40 34 61
100 100 99 94 80 75 72 66 60 54 53 49 58 56 52 45 37 37 37 29 30 26 33 33 35 23 24 23 21 22 30 33 31 42 36 31 30 28 25 26 27 31 26 28 26 24 23
93 99 96 96 89 81 74 67 61 60 58 63 89 83 79 39 35 37 28 30 31 30 28 27 31 26 28 24 20 24 23 26 28 35 34 35 31 32 46 37 36 32 26 26 25 24 23
71 73 81 84 87 78 75 69 60 58 65 43 89 99 88 52 33 36 32 35 33 33 36 34 35 30 33 29 29 32 33 34 30 30 26 34 31 30 35 38 42 20 31 26 24 23 21
80 78 81 82 81 84 79 73 55 51 51 72 75 98 99 83 49 38 36 37 37 36 41 38 38 36 37 41 34 37 39 38 37 36 38 32 30 34 46 43 24 25 30 35 32 26 22
95 87 88 86 86 85 82 81 73 61 52 51 76 89 99 98 82 70 63 55 46 35 35 44 48 42 47 41 42 49 44 30 44 63 56 45 44 39 39 49 40 28 37 35 35 36 37
96 94 94 91 85 85 86 82 81 84 81 76 72 70 96 98 98 98 72 74 66 56 49 48 58 57 58 48 51 44 37 27 36 47 70 65 55 56 48 52 34 36 40 39 41 32 48
92 94 88 79 70 70 75 78 78 82 87 90 96 77 78 100 86 84 98 99 90 80 75 67 61 61 59 55 48 42 41 31 34 26 51 57 64 66 55 54 59 45 49 44 51 60 60
83 90 80 68 75 95 80 82 83 79 80 92 98 97 86 91 81 64 74 89 99 97 98 96 65 64 56 54 45 39 40 40 35 40 42 43 36 36 45 45 70 67 67 68 69 69 71

GFSGBSN_850_rhum_225.txt.gz
RH
23 24 24 25 26 24 23 22 22 23 24 27 29 32 33 34 34 34 34 34 35 40 56 78 82 72 60 60 58 48 47 43 42 45 47 62 64 57 52 45 40 45 43 37 36 37 24
25 23 23 22 23 23 23 21 20 20 20 21 23 26 29 30 31 31 32 32 32 34 40 46 66 58 50 65 49 44 44 45 40 64 61 67 64 52 47 44 44 35 34 35 35 29 28
29 26 21 21 21 22 21 20 19 18 17 16 18 20 23 26 27 29 30 31 32 32 35 39 42 48 55 44 49 50 52 48 43 39 59 66 61 58 49 45 39 34 37 38 34 27 30
65 51 35 23 21 20 19 19 18 18 16 16 16 17 20 23 25 28 29 28 31 32 35 41 46 47 64 53 48 51 50 45 44 41 39 51 49 50 48 47 45 36 39 51 37 27 28
99 75 44 26 21 18 16 16 14 14 14 15 14 14 16 19 21 25 29 27 31 33 37 50 60 75 72 60 56 53 52 50 44 40 39 48 46 49 49 59 65 49 58 51 39 28 28
87 81 46 29 27 25 25 25 24 22 19 14 12 12 14 17 18 20 28 29 33 36 46 44 58 69 58 56 60 54 51 50 43 45 51 53 47 64 64 76 82 64 52 46 48 36 29
68 59 43 30 24 21 18 17 17 16 16 19 22 12 12 16 21 23 24 30 51 54 57 44 40 44 44 49 47 51 49 49 42 47 61 49 68 83 71 64 53 55 47 47 37 33 28
52 40 34 30 21 19 20 23 26 25 22 19 16 23 13 16 20 23 23 29 48 42 41 33 33 49 45 42 47 54 61 50 43 59 51 60 80 61 54 57 57 54 55 55 40 30 29
51 40 45 41 29 24 29 30 32 33 27 22 21 18 25 14 17 19 21 20 35 44 46 36 40 40 44 43 50 60 57 62 51 52 57 73 61 52 53 58 58 54 53 50 50 28 26
93 95 49 32 28 32 37 37 35 33 31 27 30 27 23 17 17 27 33 40 40 42 68 50 39 42 45 51 53 54 61 61 56 49 49 67 67 67 54 60 54 63 37 31 36 44 50
98 96 98 43 38 37 41 40 37 33 30 28 23 28 22 24 40 44 45 35 32 48 81 39 40 36 39 53 65 70 71 70 68 54 68 81 79 75 66 52 42 52 32 30 33 42 48
97 97 92 54 48 47 43 40 38 33 29 28 21 21 27 32 21 25 33 33 36 80 85 41 37 40 54 58 67 66 65 68 59 49 51 67 80 65 48 42 41 38 48 61 77 64 72
88 80 67 57 54 53 49 44 39 34 29 30 30 24 35 36 33 27 21 32 78 89 33 39 46 45 56 71 70 70 72 75 68 69 68 55 60 46 45 46 42 50 64 84 78 82 72
78 74 67 64 61 57 52 49 45 40 33 31 40 39 38 33 25 25 27 56 70 49 49 31 32 42 54 46 46 65 63 84 65 58 75 77 74 55 46 51 49 55 58 79 77 89 73
84 81 76 72 66 62 58 50 45 42 38 32 44 42 36 36 38 27 44 86 51 47 27 36 33 46 48 35 40 61 73 71 64 57 72 75 73 49 47 45 48 49 66 54 72 76 84
88 83 74 71 72 70 65 61 55 44 39 34 34 49 53 52 41 31 66 66 55 31 28 33 40 47 58 44 38 61 60 50 49 52 45 58 71 52 48 46 39 49 42 53 83 52 73
94 89 87 78 74 71 68 62 57 50 43 39 35 75 64 72 41 44 77 67 40 29 24 34 42 39 45 48 42 60 55 46 47 38 39 47 60 62 50 64 58 49 59 54 65 81 79
98 92 100 96 88 85 78 67 64 56 51 42 49 87 71 58 58 60 64 44 31 29 32 39 36 37 30 31 45 56 56 50 33 34 41 36 54 82 57 44 41 44 47 46 74 56 83
96 99 98 97 88 82 70 70 60 55 59 59 59 55 74 42 69 69 62 46 32 35 44 43 46 42 30 25 33 40 38 32 29 34 37 30 38 62 47 49 41 47 47 43 48 69 68
94 96 92 91 85 77 68 54 44 52 56 57 57 90 80 53 59 63 63 58 45 34 40 39 38 33 32 30 27 27 35 37 30 27 30 23 32 40 49 41 49 46 48 48 40 76 72
98 100 96 99 96 83 50 36 24 20 36 63 61 71 64 76 75 71 65 62 60 52 40 37 36 37 35 38 33 31 29 48 41 38 32 29 33 28 29 32 36 37 40 50 52 45 55
100 100 97 87 88 84 77 65 50 32 27 67 83 88 73 84 60 55 51 52 52 51 43 45 48 38 37 36 31 31 31 48 41 55 45 40 34 34 30 30 37 31 38 46 42 39 45
93 97 99 95 83 80 75 73 66 55 45 55 77 92 97 92 72 67 59 56 54 57 42 39 42 42 44 40 31 28 25 32 38 52 55 49 46 46 55 40 40 46 42 47 44 40 32
92 90 89 91 95 83 78 75 72 66 73 69 72 93 98 84 83 74 62 55 58 57 69 54 45 42 34 32 30 30 32 34 43 48 39 53 47 52 76 46 57 32 34 31 35 33 32
93 92 89 93 90 78 71 72 72 68 69 86 77 81 93 92 87 84 73 80 85 76 70 59 52 46 42 37 48 46 50 46 45 43 46 41 43 55 69 73 47 33 34 37 36 33 32
90 94 95 91 87 88 84 77 62 61 70 83 84 91 79 99 91 96 90 87 94 97 86 70 49 50 47 55 62 71 70 53 57 66 62 50 48 49 64 58 59 34 38 33 27 35 46
82 81 77 80 75 77 81 71 85 80 66 83 79 87 99 99 80 88 75 92 87 88 91 93 89 61 51 72 76 65 58 43 60 71 75 71 67 60 59 68 55 36 41 32 36 35 46
91 85 83 89 89 69 77 89 87 75 77 92 92 92 99 98 81 70 80 84 73 76 86 82 78 86 77 97 85 63 68 43 49 56 69 66 68 68 62 64 64 82 45 39 50 58 64
89 87 79 84 82 71 88 90 78 85 68 89 95 95 98 98 74 69 66 64 62 64 82 95 95 93 98 99 79 71 64 56 43 48 49 55 52 62 59 58 97 100 98 88 66 69 76